Location: Newark
(46.7000°N, 60.6000°W)
Time: 21:55:28
(UTC+00:00)

Vanguard 1 Rocket - Pass Details

Date: 31 October 2020
Orbit: 656 x 4221 km, 34.3° (Epoch: 30 November)

Event Time Altitude Azimuth Distance (km) Brightness Sun altitude
Rises 15:37:36 0° 246° (WSW) 3,203 10.5 28.9°
Reaches altitude 10° 15:40:44 10° 227° (SW) 2,107 10.0 28.9°
Maximum altitude 15:43:51 18° 182° (S) 1,581 11.0 28.9°
Drops below altitude 10° 15:47:00 10° 138° (SE) 2,129 10.1 28.9°
Sets 15:50:11 0° 119° (ESE) 3,250 10.6 28.9°
